2007VQB20200915.32966900  2.6958236850 0.5030566287 277.60085870 163.82135184  1

2.32038078 20200928.                              P/Catalina            2007VQ11

15.0  5N  12.0 10N   48 071103-080210 0.63 d0.18   NK1575  08n          M_v 2008

0210(349)

2007VQB20330521.48455507  2.7112410716 0.5028518219 277.64952424 163.69534836  1

2.30900644 20330503.                              P/Catalina            2007VQ11

15.0  5N  12.0 10N   48 071103-080210 0.63 d0.18   NK1575  08n          M_v 2008

0210(349)

2007VQB20460312.12158189  2.7237657717 0.5022989450 278.12900279 163.58116001  1

2.31832801 20460224.                              P/Catalina            2007VQ11

15.0  5N  12.0 10N   48 071103-080210 0.63 d0.18   NK1575  08n          M_v 2008

0210(349)

2007W1 20080624.88477464  0.8496550830 1.0002071071 306.55358334 334.52399649   

9.88933929 20080623.       -0.000052 +0.000582 5  Boattini              2007W1  

12.0  5N   9.5 10N  207 071120-080210 0.52   .     NK1577  08n          M_v 2008

0210(213)

2007W3 20080602.81558086  1.7761842104 0.9998840502 112.64682925  73.06414242  7

8.66722717 20080514.       +0.000138 +0.000533 5  LINEAR                2007W3  

14.5  5N  12.0 10N  124 071129-080202 0.59   .     NK1578  08n          M_v 2008

0202(J46)

2007Y1 20080319.32951422  3.3407284330 1.0000000000 357.12680563 133.09314167 11

0.17247450         .                              LINEAR                2007Y1  

13.5  5N  11.5  7.5 130 071216-080210 0.71   .   unpublish 08n              2008

0210(151)

2007Y2 20080407.81399133  4.2113905363 1.0000000000 257.60472039 303.49490247  9

8.51801145         .                              McNaught              2007Y2  

12.0  5N  10.5  7.5  39 071231-080128 0.54   .   unpublish 08n              2008

0128(415)

2008A1 20080929.12631564  1.0729787208 1.0000000000 348.48943087 277.86520699  8

2.53483025         .                              McNaught              2008A1  

 9.5  5N   6.0 10N  115 080110-080209 0.37   .   unpublish 08n              2008

0209(J46)

2008A2 20080612.03543580  1.3054048034 0.5914052833 233.16845187 315.51973457  1

9.16008740         .                              P/LINEAR              2008A2  

17.0  5N  16.0 10N  121 080113-080209 0.50 d0.17 unpublish 08n              2008

0209(246)

2008C1 20080416.85638518  1.2624602175 1.0000000000 180.92559229 307.77739603  6

1.78687726         .                              Chen-Gao              2008C1  

13.5  5N   9.5 10N  218 080202-080213 0.60   .   unpublish 08n              2008

0213(355)

NAKANO

         **** Don't distribute anyone except personal use only ****

                (C) Copyright 2008 OAA/ComputingSection

write mail from CFAD0::NAKANO on 2008-02-15 03:48:21(JST).

 

Do you want to read another message(y/nCR) ? n[MURAMATU]lo 

  MURAMATU logged out 2008-02-15 19:41:42 (JST)

 



◎C/2008 C1の軌道と予報位置



 宇都宮の鈴木雅之氏と土佐の下元繁男氏から2月3日の観測が報告されました.

彗星は,眼視光度で12等級で観測されているようです.彗星は,3月から4月に

かけて,11等級まで明るくなるでしょう.



    C/2008 C1 (Chen-Gao)

T 2008 Apr. 16.67213 TT                                 Nakano

q   1.2588550            (2000.0)            P               Q

                   Peri.  181.00261     -0.62149018     -0.36298242

                   Node   307.95509     +0.72476504     +0.07005207

e   1.0            Incl.   61.70112     +0.29743165     -0.92915901

From 41 observations 2008 Feb. 2-3.

 

Date/        TT  R.A.(2000) Decl.     Delta   r     Daily motion  Mag.  Moon Age

              h    h  m       。  ,                      ,  / PA 。  m1      。

2008 Feb.  1 12  23 02.55  +62 13.3   1.488  1.685    42.7 /  92  12.6  119  .29

           2 12  23 08.65  +62 11.6   1.480  1.676    43.4 /  92  12.6  114  .21

           3 12  23 14.84  +62 09.2   1.472  1.666    44.2 /  93  12.6  109  .14

           4 12  23 21.13  +62 06.3   1.464  1.657    44.9 /  94  12.5  103  .07

           5 12  23 27.51  +62 02.7   1.456  1.648    45.7 /  95  12.5   96  .03

           6 12  23 33.97  +61 58.4   1.448  1.639    46.4 /  95  12.4   88  .01

           7 12  23 40.51  +61 53.4   1.441  1.629    47.2 /  96  12.4   80  .00

           8 12  23 47.12  +61 47.6   1.433  1.620    47.9 /  97  12.4   72  .02

           9 12  23 53.81  +61 41.1   1.426  1.611    48.7 /  98  12.3   64  .06

          10 12  00 00.56  +61 33.7   1.419  1.602    49.4 /  99  12.3   57  .13

          11 12  00 07.36  +61 25.4   1.412  1.594    50.2 / 100  12.3   52  .22

          12 12  00 14.22  +61 16.2   1.405  1.585    50.9 / 101  12.2   48  .32

          13 12  00 21.12  +61 06.0   1.398  1.576    51.6 / 102  12.2   47  .43

          14 12  00 28.05  +60 54.9   1.391  1.567    52.4 / 103  12.2   49  .54

          15 12  00 35.01  +60 42.7   1.385  1.559    53.1 / 104  12.1   53  .65

          16 12  00 41.99  +60 29.5   1.379  1.550    53.8 / 105  12.1   60  .76

          17 12  00 48.99  +60 15.2   1.373  1.542    54.5 / 106  12.1   68  .85

          18 12  00 55.98  +59 59.8   1.367  1.533    55.2 / 107  12.0   77  .92

          19 12  01 02.98  +59 43.2   1.361  1.525    55.9 / 108  12.0   86  .97

          20 12  01 09.96  +59 25.6   1.356  1.517    56.6 / 109  12.0   95 1.00

          21 12  01 16.92  +59 06.8   1.350  1.509    57.2 / 110  11.9  105 1.00

          22 12  01 23.85  +58 46.8   1.345  1.501    57.9 / 111  11.9  114  .98

          23 12  01 30.74  +58 25.7   1.340  1.493    58.5 / 112  11.9  123  .94

          24 12  01 37.60  +58 03.4   1.336  1.485    59.1 / 113  11.8  130  .89

          25 12  01 44.40  +57 39.9   1.331  1.477    59.8 / 114  11.8  137  .82

          26 12  01 51.15  +57 15.3   1.327  1.470    60.3 / 115  11.8  142  .74

          27 12  01 57.83  +56 49.5   1.323  1.462    60.9 / 116  11.8  144  .65

          28 12  02 04.45  +56 22.6   1.320  1.455    61.5 / 116  11.7  143  .56

          29 12  02 10.99  +55 54.5   1.316  1.447    62.0 / 117  11.7  140  .46

     Mar.  1 12  02 17.46  +55 25.3   1.313  1.440    62.5 / 118  11.7  134  .37

NAKANO

         **** Don't distribute anyone except personal use only ****

                (C) Copyright 2008 OAA/ComputingSection

write mail from CFAD0::NAKANO on 2008-02-04 05:36:07(JST).

 



戻ります。